Погода в Бисере

Погода в Бисере : погода сейчас, прогноз погоды и архив. Всё, что Вы хотите узнать о погоде в Бисере!

Поиск расширенной информации на нашем сайте:

Другие новости

Новости СМИ2

Главная страница сайта

Новости сайта

03.07.2017

Напоминаем, что на нашем специализированном сайте Метеоцентр.Азия вы можете получить высокодетализированные автоматические прогнозы погоды по пунктам России, СНГ и мира в авиационном формате (включающие направление и скорость ветра, видимость, явления погоды, количество и форму облачности, нижнюю и верхнюю границу облачности).


Погода в Бисере - сегодня

Время (UTC), дата Ветер
(°,м/с) 
Видим.   Явления Облачность Т
(°С)
Тd
(°С)
f(%) Тe
(°С)
Pmin
(гПа)
dP
(гПа)
Po
(мм)
O2
(г/м3)
Тmin Tmax R s Состояние
почвы
21 19.02.18 210 (ЮЗ) 20000 м  {снег}  10/10 600 м 
[Sc]
-9.4 -10.3 93 -11  1022.4  -1.2  722  302           
00 20.02.18 200 (Ю) 4000 м  слаб. снег  10/4 600 м средняя 
[Sc|As trans]
-9.9 -10.9 92 -12  1021.5  -1  722  303           
03 20.02.18 200 (Ю) 4000 м  слаб. снег  10/6 600 м средняя 
[Sc|As trans]
-10.4 -11.4 92 -10  1019.9  -1.6  720  303  -10.7    48  неравномерный
сухой снег
100% 
06 20.02.18 170 (Ю) 4000 м  слаб. снег  10/10 600 м 
[Ns]
-9 -10 92 -11  1018.2  -1.4  719  301           
09 20.02.18 180 (Ю) 4000 м  слаб. ливневой снег  10/10 600 м кучево-дожд. 
[Cb calv]
-7.2 -8.7 89 -9  1016.6  -1.1  719  298           
12 20.02.18 160 (Ю) 4000 м  слаб. ливневой снег  10/10 600 м кучево-дожд. 
[Cb calv]
-7.1 -8.6 89 -7  1015.1  -1.3  718  298           
18 20.02.18 тихо ()   2000 м  слаб. ливневой снег  8/8 600 м кучево-дожд. 
[Cb calv]
-11.4 -12.3 93 -11  1014.2  -1  716  302           
21 20.02.18 290 (З) 2000 м  слаб. ливневой снег  9/9 600 м кучево-дожд. 
[Cb calv]
-11 -12.1 92 -13  1013.5  -0.6  716  302           
00 21.02.18 тихо ()   2000 м  слаб. ливневой снег  9/9 600 м кучево-дожд. 
[Cb calv]
-12.2 -13.5 90 -12  1013.3  -0.4  716  303           
03 21.02.18 260 (З) 10 км  в посл. час ливневой снег  10/10 600 м кучево-дожд. 
[Cb calv]
-13.9 -15.3 89 -14  1013.1  -0.6  715  305  -13.9    0.7  52  неравномерный
сухой снег
100% 
09 21.02.18 260 (З) 4000 м  слаб. ливневой снег  10/9 600 м кучево-дожд., верхняя 
[Cb calv|Ci fib]
-9.9 -11.9 85 -12  1011.9  -0.3  715  300           
12 21.02.18 230 (ЮЗ) 10 км  в посл. час ливневой снег  9/8 600 м кучево-дожд., верхняя 
[Cb calv|Ci fib]
-9.9 -12.2 83 -10  1011.8  -0.2  715  300           
18 21.02.18 220 (ЮЗ) 2000 м  слаб. ливневой снег  10/6 600 м кучево-дожд., верхняя 
[Cb calv|Ci fib]
-13.4 -14.6 91 -13  1012.9  715  304           
21 21.02.18 250 (З) 2000 м  слаб. ливневой снег  10/10 600 м кучево-дожд. 
[Cb calv]
-13.2 -14.5 90 -15  1012.9  0.1  715  304           
00 22.02.18 220 (ЮЗ) 2000 м  слаб. ливневой снег  10/10 600 м кучево-дожд. 
[Cb calv]
-14.2 -15.5 90 -14  1013.1  0.1  715  305           
03 22.02.18 200 (Ю) 2000 м  слаб. ливневой снег  9/9 600 м кучево-дожд. 
[Cb calv]
-14.6 -16 89 -17  1012.9  -0.3  715  306  -15.4    0.8  54  неравномерный
сухой снег
100% 
06 22.02.18 230 (ЮЗ) 4000 м  слаб. ливневой снег  9/9 600 м кучево-дожд. 
[Cb calv]
-14 -15.5 88 -18  1012.6  0.1  715  305           
09 22.02.18 240 (ЮЗ) 4000 м  слаб. ливневой снег  9/9 600 м кучево-дожд. 
[Cb calv]
-12.5 -14.7 84 -16  1012.7  0.4  715  303           
12 22.02.18 240 (ЮЗ) 10 км  {ливн. осадки}  9/9 600 м 
[Sc]
-13 -15.8 79 -16  1013.8  0.9  716  304           
18 22.02.18 270 (З) 20000 м  {ливн. осадки, снег}  4/0 верхняя 
[Cc]
-18.1 -20.3 83 -22  1016.7  0.7  717  311           
21 22.02.18 230 (ЮЗ) 20000 м    10/0 верхняя 
[Cs]
-20 -22.1 83 -20  1017.8  0.6  717  313           
00 23.02.18 230 (ЮЗ) 20000 м    10/0 верхняя 
[Cs]
-21 -23.1 83 -24  1018.4  0.3  718  315           
03 23.02.18 230 (ЮЗ) 20000 м    10/8 2000 м средняя, верхняя 
[Ac lent|Ci fib]
-22.1 -24.5 81 -22  1019.2  0.5  718  316  -22.2    0.2  54  неравномерный
сухой снег
100% 
06 23.02.18 220 (ЮЗ) 20000 м    3/3 2000 м средняя 
[Ac lent]
-20.1 -22.4 82 -23  1019  0.3  718  314  -23.7         
09 23.02.18 210 (ЮЗ) 20000 м    10/4 600 м средняя 
[Sc|As trans]
-17.3 -20.3 77 -17  1018.6  0.3  718  311           
Время (UTC), дата Ветер
(°,м/с) 
Видим.   Явления Облачность Т
(°С)
Тd
(°С)
f(%) Тe
(°С)
Pmin
(гПа)
dP
(гПа)
Po
(мм)
O2
(г/м3)
Тmin Tmax R s Состояние
почвы

Для получения пояснительной информации подведите курсор к названию столбца.

ПОГОДА в Бисере - архив

Всё, что Вы хотите узнать о погоде в Бисере - удобно и подробно!

Выберите нужную дату (начиная с 1 января 2015* года) и нажмите кнопку "Найти".
Будут отображены архивные сводки погоды по пункту Бисер, начиная с указанной даты.


Отображать данные в формате CSV (для использования в таблицах Excel)


Внимание! Наш архив погоды предназначен исключительно для личного некоммерческого использования в познавательных целях. Если Вам необходимы официальные справки о состоянии погоды (для производственных, юридических, коммерческих и т.п. целей), обращайтесь в органы Росгидромета.

*Примечание: данная дата относится к архиву по метеостанциям СССР (Россия, СНГ, Балтия).
Архив по метеостанциям Зарубежной Европы и Азии (кроме Китая) хранится 10 дней, по другим регионам земного шара (Китай, Африка, Америка, Австралия, Океания) - 1 день.

Бисер - район местоположения метеостанции


Название, широта, долгота, высота метеостанции:
Бисер 58.5°ш. 58.9°д. 463 м над ур. моря [Российская Федерация]

Дополнительная информация

В oтличие oт бoльшинства пoгoдных сайтoв мы публикуем пoдрoбную метеoинфoрмацию в детальнoм прoфессиoнальнoм фoрмате.

Характеристики температуры и влажнoсти вoздуха измеряются на высoте 2 м в тени вдали oт зданий и деревьев.
Скoрoсть ветра измеряется на высoте 10 м (на урoвне рoста челoвека скoрoсть ветра ниже в 1.5-2 раза). Если метеoстанция нахoдится в гoрoде или в лесу, тo скoрoсть ветра занижена на 2-4 м/с пo сравнению с oткрытым местoм. Скoрoсть ветра над акватoриями крупных рек и oзёр, а также на вершинах хoлмoв на 2-5 м/с выше, чем в oбычных услoвиях.
Атмoсфернoе давление в разных тoчках местнoсти мoжет значительнo oтличаться oт давления на метеoстанции, в зависимoсти oт услoвий рельефа (при пoдъёме на 10 м давление пoнижается примернo на 1 мм рт.ст.).